Location: ???????
(54.6339°N, 39.4245°E)
Time: 02:51:39
(UTC+00:00)

Cosmos 1633 Rocket - Pass Details

Date: 19 May 2025
Orbit: 600 x 618 km, 82.5° (Epoch: 15 June)

Event Time Altitude Azimuth Distance (km) Brightness Sun altitude
Rises 21:14:43 0° 350° (N) 2,888 8.3 -15.4°
Reaches altitude 10° 21:16:59 10° 354° (N) 1,976 7.0 -15.4°
Maximum altitude 21:21:19 62° 75° (ENE) 690 3.3 -15.4°
Enters shadow 21:23:54 23° 150° (SSE) 1,301 4.2 -15.4°
